Location: Champs
(48.8539°N, 2.6040°E)
Time: 22:34:09
(UTC+00:00)

SPOT 1 Rocket Y - Pass Details

Date: 20 August 2022
Orbit: 784 x 832 km, 98.5° (Epoch: 06 October)

Event Time Altitude Azimuth Distance (km) Brightness Sun altitude
Exits shadow 20:52:29 - 190° (S) 2,448 7.8 -17.1°
Reaches altitude 10° 20:52:42 10° 191° (S) 2,367 7.7 -17.1°
Maximum altitude 20:57:40 43° 262° (W) 1,120 6.6 -17.7°
Drops below altitude 10° 21:02:45 10° 334° (NNW) 2,414 9.2 -18.3°
Sets 21:05:15 0° 341° (NNW) 3,358 10.0 -18.6°
